Location: Bagnolo San Vito
(45.0833°N, 10.8833°E)
Time: 23:36:38
(UTC+00:00)

OBJECT-B - Pass Details

Date: 03 March 2021
Orbit: 414 x 427 km, 97.0° (Epoch: 11 April)

Event Time Altitude Azimuth Distance (km) Brightness Sun altitude
Exits shadow 19:38:15 21° 319° (NW) 1,026 3.3 -27.2°
Drops below altitude 10° 19:39:33 10° 332° (NNW) 1,514 4.1 -27.4°
Sets 19:41:39 0° 341° (NNW) 2,381 5.1 -27.8°
